LAN2366 SPZO-SCEL

Flight info

Callsign LAN2366
Flight time 3h 3m
Altitude 39000
Route ILMOX DCT OPKUL UL300 ARI UV204 VADIX UT295 NENAT UQ803 ISGUD UL302 SIMOK SIMOK7B
Aircraft A320/M-SDE3FGHIRWY/LB1

Departure

Time 2026-05-07 12:56
Airport Alejandro Velasco Astete International Airport (SPZO)

Arrival

Time 2026-05-07 15:59
Airport Comodoro Arturo Merino Benítez International Airport (SCEL)
Time Latitude Longitude Altitude Speed Heading
2026-05-07 12:28 -13.53740 -71.94408 10817 ft 0 kts 146°
2026-05-07 12:48 -13.53732 -71.94414 10816 ft 3 kts 142°
2026-05-07 12:48 -13.53717 -71.94427 10816 ft 3 kts 139°
2026-05-07 12:49 -13.53702 -71.94438 10816 ft 3 kts 172°
2026-05-07 12:49 -13.53686 -71.94439 10816 ft 3 kts 186°
2026-05-07 12:49 -13.53668 -71.94434 10816 ft 3 kts 217°
2026-05-07 12:49 -13.53656 -71.94421 10816 ft 3 kts 260°
2026-05-07 12:50 -13.53655 -71.94410 10816 ft 0 kts 276°
2026-05-07 12:52 -13.53654 -71.94420 10816 ft 6 kts 276°
2026-05-07 12:52 -13.53646 -71.94503 10816 ft 14 kts 276°
2026-05-07 12:52 -13.53635 -71.94608 10821 ft 17 kts 276°
2026-05-07 12:52 -13.53621 -71.94749 10830 ft 21 kts 275°
2026-05-07 12:53 -13.53606 -71.94896 10839 ft 19 kts 277°
2026-05-07 12:53 -13.53594 -71.95018 10850 ft 18 kts 276°
2026-05-07 12:53 -13.53580 -71.95151 10860 ft 17 kts 276°
2026-05-07 12:53 -13.53566 -71.95290 10864 ft 23 kts 276°
2026-05-07 12:54 -13.53552 -71.95441 10865 ft 12 kts 277°
2026-05-07 12:54 -13.53495 -71.95471 10869 ft 10 kts 19°
2026-05-07 12:54 -13.53432 -71.95425 10866 ft 12 kts 39°
2026-05-07 12:54 -13.53424 -71.95346 10866 ft 14 kts 97°
2026-05-07 12:55 -13.53447 -71.95112 10859 ft 66 kts 96°
2026-05-07 12:55 -13.53521 -71.94389 10814 ft 134 kts 96°
2026-05-07 12:55 -13.53637 -71.93247 10766 ft 187 kts 96°
2026-05-07 12:55 -13.53775 -71.91876 11450 ft 191 kts 95°
2026-05-07 12:56 -13.53900 -71.90544 12399 ft 189 kts 96°
2026-05-07 12:56 -13.54091 -71.89137 12375 ft 209 kts 105°
2026-05-07 12:56 -13.54636 -71.87691 12551 ft 225 kts 117°
2026-05-07 12:56 -13.55355 -71.86197 12743 ft 241 kts 116°
2026-05-07 12:57 -13.56001 -71.84550 12920 ft 257 kts 110°
2026-05-07 12:57 -13.56638 -71.82742 13014 ft 280 kts 110°
2026-05-07 12:57 -13.57354 -71.80790 13137 ft 304 kts 111°
2026-05-07 12:57 -13.58159 -71.78725 13458 ft 316 kts 112°
2026-05-07 12:58 -13.58980 -71.76621 13964 ft 317 kts 112°
2026-05-07 12:58 -13.59911 -71.74585 14583 ft 315 kts 121°
2026-05-07 12:58 -13.61180 -71.72734 15149 ft 318 kts 131°
2026-05-07 12:58 -13.62683 -71.71088 15876 ft 310 kts 134°
2026-05-07 12:59 -13.64150 -71.69518 16724 ft 302 kts 134°
2026-05-07 12:59 -13.65571 -71.67926 17332 ft 302 kts 129°
2026-05-07 12:59 -13.66824 -71.66191 17932 ft 304 kts 123°
2026-05-07 12:59 -13.67889 -71.64306 18664 ft 307 kts 117°
2026-05-07 13:00 -13.68755 -71.62288 19305 ft 310 kts 110°
2026-05-07 13:00 -13.69472 -71.60180 19942 ft 314 kts 109°
2026-05-07 13:00 -13.70203 -71.58036 20300 ft 325 kts 110°
2026-05-07 13:00 -13.71041 -71.55821 20417 ft 339 kts 117°
2026-05-07 13:01 -13.72282 -71.53702 20540 ft 353 kts 127°
2026-05-07 13:01 -13.73941 -71.51779 20664 ft 367 kts 137°
2026-05-07 13:01 -13.75967 -71.50095 20781 ft 381 kts 143°
2026-05-07 13:01 -13.78111 -71.48414 20902 ft 394 kts 143°
2026-05-07 13:02 -13.80318 -71.46679 21058 ft 404 kts 142°
2026-05-07 13:02 -13.82566 -71.44913 21394 ft 408 kts 143°
2026-05-07 13:02 -13.84831 -71.43134 21782 ft 411 kts 143°
2026-05-07 13:02 -13.87086 -71.41366 22138 ft 414 kts 143°
2026-05-07 13:03 -13.89387 -71.39566 22524 ft 417 kts 143°
2026-05-07 13:03 -13.91702 -71.37755 22918 ft 419 kts 143°
2026-05-07 13:03 -13.94034 -71.35931 23293 ft 422 kts 143°
2026-05-07 13:03 -13.96380 -71.34093 23651 ft 425 kts 143°
2026-05-07 13:04 -13.98741 -71.32242 24009 ft 427 kts 143°
2026-05-07 13:04 -14.01111 -71.30386 24300 ft 429 kts 143°
2026-05-07 13:04 -14.03496 -71.28518 24588 ft 433 kts 143°
2026-05-07 13:04 -14.05899 -71.26633 24906 ft 435 kts 143°
2026-05-07 13:05 -14.08311 -71.24736 25187 ft 438 kts 143°
2026-05-07 13:05 -14.10738 -71.22827 25457 ft 440 kts 143°
2026-05-07 13:05 -14.13186 -71.20901 25709 ft 444 kts 143°
2026-05-07 13:05 -14.15646 -71.18965 25981 ft 447 kts 143°
2026-05-07 13:06 -14.18125 -71.17017 26252 ft 450 kts 143°
2026-05-07 13:06 -14.20615 -71.15057 26523 ft 452 kts 143°
2026-05-07 13:06 -14.23123 -71.13082 26789 ft 455 kts 143°
2026-05-07 13:06 -14.25647 -71.11096 27043 ft 457 kts 143°
2026-05-07 13:07 -14.28185 -71.09101 27302 ft 460 kts 143°
2026-05-07 13:07 -14.30737 -71.07094 27546 ft 463 kts 143°
2026-05-07 13:07 -14.33304 -71.05076 27795 ft 466 kts 143°
2026-05-07 13:07 -14.35885 -71.03043 28045 ft 468 kts 143°
2026-05-07 13:08 -14.38481 -71.00994 28274 ft 471 kts 143°
2026-05-07 13:08 -14.41090 -70.98934 28518 ft 474 kts 143°
2026-05-07 13:08 -14.43711 -70.96865 28766 ft 476 kts 143°
2026-05-07 13:08 -14.46347 -70.94783 28990 ft 478 kts 143°
2026-05-07 13:09 -14.49000 -70.92690 29199 ft 481 kts 143°
2026-05-07 13:09 -14.51662 -70.90588 29426 ft 484 kts 143°
2026-05-07 13:09 -14.54479 -70.88695 29624 ft 484 kts 154°
2026-05-07 13:09 -14.57559 -70.87414 29822 ft 484 kts 166°
2026-05-07 13:10 -14.60860 -70.86773 30029 ft 483 kts 177°
2026-05-07 13:10 -14.64210 -70.86810 30261 ft 481 kts 189°
2026-05-07 13:10 -14.67474 -70.87514 30545 ft 477 kts 200°
2026-05-07 13:10 -14.70592 -70.88670 30849 ft 476 kts 202°
2026-05-07 13:11 -14.73692 -70.89848 31165 ft 474 kts 203°
2026-05-07 13:11 -14.76783 -70.91023 31489 ft 472 kts 203°
2026-05-07 13:11 -14.79855 -70.92191 31823 ft 470 kts 203°
2026-05-07 13:11 -14.82918 -70.93355 32174 ft 468 kts 203°
2026-05-07 13:12 -14.85969 -70.94514 32505 ft 466 kts 204°
2026-05-07 13:12 -14.89004 -70.95664 32872 ft 464 kts 204°
2026-05-07 13:12 -14.92030 -70.96816 33204 ft 462 kts 204°
2026-05-07 13:12 -14.95034 -70.97964 33558 ft 459 kts 204°
2026-05-07 13:13 -14.98028 -70.99106 33897 ft 457 kts 204°
2026-05-07 13:13 -15.01000 -71.00238 34269 ft 455 kts 204°
2026-05-07 13:13 -15.03971 -71.01370 34598 ft 453 kts 204°
2026-05-07 13:13 -15.06936 -71.02467 34921 ft 453 kts 200°
2026-05-07 13:14 -15.10026 -71.03156 35181 ft 458 kts 191°
2026-05-07 13:14 -15.13229 -71.03295 35434 ft 464 kts 181°
2026-05-07 13:14 -15.16453 -71.02875 35653 ft 469 kts 173°
2026-05-07 13:14 -15.19602 -71.02218 35849 ft 468 kts 173°
2026-05-07 13:15 -15.22799 -71.01550 36006 ft 468 kts 173°
2026-05-07 13:15 -15.25992 -71.00878 36256 ft 468 kts 173°
2026-05-07 13:15 -15.29181 -71.00206 36468 ft 468 kts 173°
2026-05-07 13:15 -15.32371 -70.99536 36673 ft 468 kts 173°
2026-05-07 13:16 -15.35561 -70.98864 36873 ft 468 kts 173°
2026-05-07 13:16 -15.38755 -70.98193 37097 ft 468 kts 173°
2026-05-07 13:16 -15.41943 -70.97526 37315 ft 468 kts 173°
2026-05-07 13:16 -15.45132 -70.96856 37436 ft 468 kts 173°
2026-05-07 13:17 -15.51519 -70.95513 37476 ft 468 kts 173°
2026-05-07 13:17 -15.57897 -70.94164 37472 ft 467 kts 173°
2026-05-07 13:18 -15.64232 -70.92824 37486 ft 468 kts 173°
2026-05-07 13:18 -15.70614 -70.91484 37485 ft 467 kts 173°
2026-05-07 13:19 -15.76987 -70.90145 37491 ft 467 kts 173°
2026-05-07 13:19 -15.83368 -70.88802 37506 ft 468 kts 173°
2026-05-07 13:20 -15.89745 -70.87452 37501 ft 468 kts 173°
2026-05-07 13:20 -15.96128 -70.86096 37498 ft 468 kts 173°
2026-05-07 13:21 -16.02511 -70.84741 37502 ft 468 kts 173°
2026-05-07 13:21 -16.08893 -70.83393 37504 ft 468 kts 173°
2026-05-07 13:22 -16.15234 -70.82062 37503 ft 468 kts 173°
2026-05-07 13:22 -16.21617 -70.80708 37500 ft 468 kts 173°
2026-05-07 13:23 -16.27995 -70.79358 37500 ft 468 kts 173°
2026-05-07 13:23 -16.33303 -70.78231 37455 ft 468 kts 173°
2026-05-07 13:24 -16.39686 -70.76873 37451 ft 468 kts 173°
2026-05-07 13:24 -16.46070 -70.75519 37399 ft 469 kts 173°
2026-05-07 13:25 -16.52465 -70.74162 37433 ft 468 kts 173°
2026-05-07 13:25 -16.58845 -70.72808 37399 ft 468 kts 173°
2026-05-07 13:26 -16.65241 -70.71455 37389 ft 469 kts 173°
2026-05-07 13:26 -16.71641 -70.70097 37364 ft 469 kts 173°
2026-05-07 13:27 -16.78038 -70.68733 37363 ft 469 kts 173°
2026-05-07 13:27 -16.84439 -70.67374 37336 ft 470 kts 173°
2026-05-07 13:28 -16.90853 -70.66012 37333 ft 470 kts 173°
2026-05-07 13:28 -16.97230 -70.64649 37290 ft 470 kts 173°
2026-05-07 13:29 -17.03647 -70.63276 37295 ft 471 kts 173°
2026-05-07 13:29 -17.10063 -70.61909 37254 ft 470 kts 173°
2026-05-07 13:30 -17.16474 -70.60546 37282 ft 470 kts 174°
2026-05-07 13:30 -17.22892 -70.59182 37222 ft 470 kts 173°
2026-05-07 13:31 -17.29305 -70.57805 37222 ft 471 kts 173°
2026-05-07 13:31 -17.35723 -70.56427 37175 ft 471 kts 173°
2026-05-07 13:32 -17.42138 -70.55057 37179 ft 470 kts 174°
2026-05-07 13:32 -17.48556 -70.53681 37148 ft 471 kts 174°
2026-05-07 13:33 -17.54982 -70.52301 37156 ft 471 kts 174°
2026-05-07 13:33 -17.61412 -70.50919 37156 ft 471 kts 174°
2026-05-07 13:34 -17.70996 -70.48868 37132 ft 471 kts 174°
2026-05-07 13:35 -17.77418 -70.47488 37136 ft 471 kts 174°
2026-05-07 13:35 -17.83833 -70.46108 37116 ft 471 kts 174°
2026-05-07 13:36 -17.90246 -70.44728 37114 ft 470 kts 174°
2026-05-07 13:36 -17.96663 -70.43345 37096 ft 471 kts 174°
2026-05-07 13:37 -18.03076 -70.41959 37091 ft 470 kts 174°
2026-05-07 13:37 -18.09488 -70.40574 37097 ft 470 kts 174°
2026-05-07 13:38 -18.15899 -70.39188 37091 ft 470 kts 174°
2026-05-07 13:38 -18.22312 -70.37809 37081 ft 470 kts 174°
2026-05-07 13:39 -18.28726 -70.36430 37091 ft 470 kts 174°
2026-05-07 13:39 -18.35139 -70.35044 37090 ft 471 kts 174°
2026-05-07 13:40 -18.41576 -70.34231 37103 ft 465 kts 181°
2026-05-07 13:40 -18.48032 -70.33683 37098 ft 465 kts 181°
2026-05-07 13:41 -18.54488 -70.33142 37095 ft 465 kts 181°
2026-05-07 13:41 -18.60908 -70.32591 37090 ft 465 kts 181°
2026-05-07 13:42 -18.67369 -70.32028 37085 ft 465 kts 181°
2026-05-07 13:42 -18.73824 -70.31471 37098 ft 466 kts 181°
2026-05-07 13:43 -18.80283 -70.30914 37094 ft 466 kts 181°
2026-05-07 13:43 -18.86752 -70.30361 37098 ft 466 kts 181°
2026-05-07 13:44 -18.93194 -70.29810 37091 ft 467 kts 181°
2026-05-07 13:44 -18.99667 -70.29248 37094 ft 466 kts 181°
2026-05-07 13:45 -19.06139 -70.28681 37111 ft 467 kts 182°
2026-05-07 13:45 -19.12625 -70.28119 37099 ft 468 kts 182°
2026-05-07 13:46 -19.19110 -70.27558 37088 ft 467 kts 182°
2026-05-07 13:46 -19.25587 -70.26995 37091 ft 467 kts 182°
2026-05-07 13:47 -19.32072 -70.26433 37081 ft 467 kts 182°
2026-05-07 13:47 -19.38547 -70.25872 37098 ft 467 kts 182°
2026-05-07 13:48 -19.45029 -70.25419 37080 ft 466 kts 184°
2026-05-07 13:48 -19.51472 -70.25054 37081 ft 467 kts 184°
2026-05-07 13:49 -19.57961 -70.24673 37075 ft 467 kts 184°
2026-05-07 13:49 -19.64457 -70.24258 37077 ft 468 kts 183°
2026-05-07 13:50 -19.70963 -70.23840 37101 ft 468 kts 184°
2026-05-07 13:50 -19.77464 -70.23428 37093 ft 469 kts 184°
2026-05-07 13:51 -19.83974 -70.23011 37088 ft 469 kts 184°
2026-05-07 13:51 -19.90494 -70.22589 37092 ft 470 kts 184°
2026-05-07 13:52 -19.97020 -70.22164 37098 ft 469 kts 184°
2026-05-07 13:52 -20.03544 -70.21748 37114 ft 469 kts 184°
2026-05-07 13:53 -20.10066 -70.21331 37094 ft 470 kts 184°
2026-05-07 13:53 -20.16598 -70.20917 37087 ft 471 kts 184°
2026-05-07 13:54 -20.23140 -70.20502 37087 ft 470 kts 184°
2026-05-07 13:54 -20.29630 -70.20089 37077 ft 471 kts 184°
2026-05-07 13:55 -20.36181 -70.19665 37107 ft 471 kts 184°
2026-05-07 13:55 -20.42730 -70.19239 37088 ft 471 kts 184°
2026-05-07 13:56 -20.49276 -70.18813 37082 ft 472 kts 184°
2026-05-07 13:56 -20.55828 -70.18397 37086 ft 471 kts 186°
2026-05-07 13:57 -20.62275 -70.18774 37092 ft 462 kts 193°
2026-05-07 13:57 -20.68673 -70.19377 37110 ft 461 kts 194°
2026-05-07 13:58 -20.75063 -70.19980 37103 ft 460 kts 194°
2026-05-07 13:58 -20.81451 -70.20589 37107 ft 461 kts 194°
2026-05-07 13:59 -20.87844 -70.21192 37098 ft 461 kts 193°
2026-05-07 13:59 -20.94236 -70.21778 37101 ft 461 kts 193°
2026-05-07 14:00 -21.00621 -70.22368 37103 ft 460 kts 194°
2026-05-07 14:00 -21.06950 -70.22962 37099 ft 460 kts 194°
2026-05-07 14:01 -21.13328 -70.23565 37101 ft 460 kts 194°
2026-05-07 14:01 -21.19715 -70.24162 37102 ft 460 kts 194°
2026-05-07 14:02 -21.26093 -70.24760 37122 ft 460 kts 194°
2026-05-07 14:02 -21.32471 -70.25369 37113 ft 460 kts 194°
2026-05-07 14:03 -21.38844 -70.25971 37109 ft 459 kts 194°
2026-05-07 14:03 -21.45218 -70.26565 37105 ft 459 kts 194°
2026-05-07 14:04 -21.51577 -70.27163 37103 ft 459 kts 194°
2026-05-07 14:04 -21.57895 -70.27763 37123 ft 458 kts 194°
2026-05-07 14:05 -21.64246 -70.28367 37112 ft 458 kts 195°
2026-05-07 14:05 -21.70604 -70.28964 37106 ft 458 kts 194°
2026-05-07 14:06 -21.76944 -70.29562 37101 ft 457 kts 195°
2026-05-07 14:06 -21.83286 -70.30170 37100 ft 457 kts 195°
2026-05-07 14:07 -21.89628 -70.30772 37130 ft 457 kts 195°
2026-05-07 14:07 -21.95964 -70.31355 37117 ft 457 kts 195°
2026-05-07 14:08 -22.02301 -70.31909 37112 ft 456 kts 195°
2026-05-07 14:08 -22.08582 -70.32458 37107 ft 455 kts 195°
2026-05-07 14:09 -22.14908 -70.33007 37104 ft 455 kts 195°
2026-05-07 14:09 -22.21222 -70.33568 37129 ft 455 kts 195°
2026-05-07 14:10 -22.27533 -70.34135 37113 ft 455 kts 195°
2026-05-07 14:10 -22.33839 -70.34699 37108 ft 454 kts 195°
2026-05-07 14:11 -22.40138 -70.35257 37110 ft 454 kts 195°
2026-05-07 14:11 -22.46431 -70.35810 37107 ft 454 kts 195°
2026-05-07 14:12 -22.52729 -70.36366 37128 ft 453 kts 195°
2026-05-07 14:12 -22.58969 -70.36917 37118 ft 452 kts 195°
2026-05-07 14:13 -22.65237 -70.37473 37117 ft 452 kts 195°
2026-05-07 14:13 -22.71501 -70.38035 37112 ft 451 kts 195°
2026-05-07 14:14 -22.76749 -70.38504 37110 ft 451 kts 195°
2026-05-07 14:14 -22.83004 -70.39066 37130 ft 451 kts 195°
2026-05-07 14:15 -22.89253 -70.39624 37117 ft 450 kts 195°
2026-05-07 14:15 -22.95488 -70.40181 37114 ft 449 kts 195°
2026-05-07 14:16 -23.01669 -70.40734 37110 ft 448 kts 195°
2026-05-07 14:16 -23.07886 -70.41292 37107 ft 448 kts 195°
2026-05-07 14:17 -23.14101 -70.41852 37132 ft 448 kts 195°
2026-05-07 14:17 -23.20321 -70.42406 37117 ft 447 kts 195°
2026-05-07 14:18 -23.26508 -70.42955 37116 ft 446 kts 195°
2026-05-07 14:18 -23.32687 -70.43514 37100 ft 444 kts 195°
2026-05-07 14:19 -23.38848 -70.44075 37105 ft 444 kts 195°
2026-05-07 14:19 -23.45022 -70.44611 37116 ft 447 kts 191°
2026-05-07 14:20 -23.51311 -70.43903 37107 ft 460 kts 179°
2026-05-07 14:20 -23.57607 -70.42694 37103 ft 459 kts 179°
2026-05-07 14:21 -23.63851 -70.41505 37097 ft 458 kts 180°
2026-05-07 14:21 -23.70129 -70.40313 37098 ft 458 kts 180°
2026-05-07 14:22 -23.76405 -70.39102 37115 ft 457 kts 178°
2026-05-07 14:22 -23.82659 -70.37897 37116 ft 455 kts 179°
2026-05-07 14:23 -23.88889 -70.36707 37113 ft 454 kts 179°
2026-05-07 14:23 -23.95094 -70.35516 37109 ft 453 kts 178°
2026-05-07 14:24 -24.01307 -70.34317 37110 ft 453 kts 179°
2026-05-07 14:24 -24.07509 -70.33122 37106 ft 452 kts 179°
2026-05-07 14:25 -24.13701 -70.31930 37102 ft 451 kts 179°
2026-05-07 14:25 -24.19888 -70.30741 37104 ft 451 kts 179°
2026-05-07 14:26 -24.26069 -70.29553 37090 ft 450 kts 179°
2026-05-07 14:26 -24.32247 -70.28351 37140 ft 451 kts 178°
2026-05-07 14:27 -24.38376 -70.27158 37131 ft 449 kts 177°
2026-05-07 14:27 -24.44517 -70.25969 37130 ft 447 kts 178°
2026-05-07 14:28 -24.50641 -70.24788 37125 ft 446 kts 178°
2026-05-07 14:28 -24.56750 -70.23605 37124 ft 446 kts 177°
2026-05-07 14:29 -24.62850 -70.22416 37133 ft 443 kts 176°
2026-05-07 14:29 -24.68880 -70.21243 37134 ft 438 kts 176°
2026-05-07 14:30 -24.74875 -70.20079 37148 ft 437 kts 177°
2026-05-07 14:30 -24.80839 -70.19595 37137 ft 423 kts 191°
2026-05-07 14:31 -24.86709 -70.20123 37110 ft 423 kts 191°
2026-05-07 14:31 -24.92581 -70.20634 37139 ft 422 kts 190°
2026-05-07 14:32 -24.98419 -70.21151 37137 ft 419 kts 190°
2026-05-07 14:32 -25.04217 -70.21670 37128 ft 417 kts 190°
2026-05-07 14:33 -25.10001 -70.22181 37127 ft 416 kts 190°
2026-05-07 14:33 -25.15713 -70.22686 37117 ft 414 kts 190°
2026-05-07 14:34 -25.21457 -70.23191 37135 ft 414 kts 190°
2026-05-07 14:34 -25.27193 -70.23704 37122 ft 413 kts 190°
2026-05-07 14:35 -25.32913 -70.24219 37114 ft 412 kts 190°
2026-05-07 14:35 -25.38624 -70.24723 37106 ft 412 kts 190°
2026-05-07 14:36 -25.44334 -70.25226 37097 ft 412 kts 190°
2026-05-07 14:36 -25.50049 -70.25737 37138 ft 412 kts 190°
2026-05-07 14:37 -25.55710 -70.26248 37107 ft 406 kts 190°
2026-05-07 14:37 -25.64090 -70.26997 37102 ft 403 kts 190°
2026-05-07 14:38 -25.69683 -70.27496 37097 ft 403 kts 190°
2026-05-07 14:38 -25.75271 -70.27994 37105 ft 403 kts 190°
2026-05-07 14:39 -25.80845 -70.28492 37111 ft 400 kts 189°
2026-05-07 14:39 -25.86321 -70.28983 37098 ft 392 kts 189°
2026-05-07 14:40 -25.91747 -70.29474 37094 ft 391 kts 189°
2026-05-07 14:40 -25.97161 -70.29964 37096 ft 390 kts 189°
2026-05-07 14:41 -26.02582 -70.30458 37095 ft 390 kts 190°
2026-05-07 14:41 -26.07991 -70.30951 37094 ft 390 kts 190°
2026-05-07 14:42 -26.13399 -70.31444 37118 ft 389 kts 189°
2026-05-07 14:42 -26.18783 -70.31937 37112 ft 387 kts 189°
2026-05-07 14:43 -26.24116 -70.32426 37111 ft 387 kts 189°
2026-05-07 14:43 -26.29476 -70.32919 37112 ft 386 kts 189°
2026-05-07 14:44 -26.34831 -70.33417 37107 ft 386 kts 189°
2026-05-07 14:44 -26.40178 -70.33911 37121 ft 384 kts 189°
2026-05-07 14:45 -26.45485 -70.34393 37116 ft 381 kts 190°
2026-05-07 14:45 -26.50768 -70.34875 37117 ft 381 kts 189°
2026-05-07 14:46 -26.56047 -70.35362 37109 ft 381 kts 189°
2026-05-07 14:46 -26.61289 -70.35850 37109 ft 380 kts 189°
2026-05-07 14:47 -26.66559 -70.36331 37104 ft 380 kts 189°
2026-05-07 14:47 -26.71835 -70.36827 37128 ft 380 kts 190°
2026-05-07 14:48 -26.77100 -70.37319 37121 ft 379 kts 189°
2026-05-07 14:48 -26.82367 -70.37804 37118 ft 380 kts 189°
2026-05-07 14:49 -26.87636 -70.38294 37109 ft 379 kts 190°
2026-05-07 14:49 -26.92887 -70.38788 37107 ft 378 kts 189°
2026-05-07 14:50 -26.98094 -70.39268 37098 ft 378 kts 189°
2026-05-07 14:50 -27.03340 -70.39756 37099 ft 378 kts 189°
2026-05-07 14:51 -27.08587 -70.40245 37101 ft 379 kts 189°
2026-05-07 14:51 -27.13846 -70.40730 37104 ft 379 kts 190°
2026-05-07 14:52 -27.19101 -70.41220 37106 ft 379 kts 189°
2026-05-07 14:52 -27.24353 -70.41714 37109 ft 379 kts 189°
2026-05-07 14:53 -27.29605 -70.42205 37132 ft 379 kts 190°
2026-05-07 14:53 -27.34847 -70.42700 37120 ft 377 kts 190°
2026-05-07 14:54 -27.40084 -70.43191 37118 ft 378 kts 190°
2026-05-07 14:54 -27.45326 -70.43682 37116 ft 378 kts 190°
2026-05-07 14:55 -27.50564 -70.44168 37110 ft 378 kts 190°
2026-05-07 14:55 -27.55807 -70.44658 37134 ft 378 kts 190°
2026-05-07 14:56 -27.61039 -70.45151 37124 ft 377 kts 190°
2026-05-07 14:56 -27.66262 -70.45645 37119 ft 377 kts 190°
2026-05-07 14:57 -27.71451 -70.46141 37117 ft 376 kts 190°
2026-05-07 14:57 -27.76669 -70.46640 37120 ft 377 kts 190°
2026-05-07 14:58 -27.81895 -70.47132 37119 ft 377 kts 190°
2026-05-07 14:58 -27.87115 -70.47625 37137 ft 376 kts 190°
2026-05-07 14:59 -27.92330 -70.48116 37132 ft 375 kts 190°
2026-05-07 14:59 -27.97534 -70.48610 37125 ft 375 kts 190°
2026-05-07 15:00 -28.02730 -70.49106 37120 ft 374 kts 190°
2026-05-07 15:00 -28.07923 -70.49599 37116 ft 374 kts 190°
2026-05-07 15:01 -28.13087 -70.50091 37142 ft 375 kts 189°
2026-05-07 15:01 -28.18275 -70.50582 37133 ft 374 kts 189°
2026-05-07 15:02 -28.23459 -70.51073 37132 ft 373 kts 189°
2026-05-07 15:02 -28.28628 -70.51560 37124 ft 372 kts 189°
2026-05-07 15:03 -28.32914 -70.51966 37129 ft 372 kts 189°
2026-05-07 15:03 -28.38070 -70.52473 37122 ft 372 kts 189°
2026-05-07 15:04 -28.43229 -70.52983 37139 ft 372 kts 189°
2026-05-07 15:04 -28.48385 -70.53478 37137 ft 371 kts 189°
2026-05-07 15:05 -28.53532 -70.53960 37134 ft 370 kts 189°
2026-05-07 15:05 -28.58671 -70.54437 37090 ft 370 kts 188°
2026-05-07 15:06 -28.63817 -70.54913 37106 ft 371 kts 188°
2026-05-07 15:06 -28.68959 -70.55386 37144 ft 371 kts 188°
2026-05-07 15:07 -28.74064 -70.55857 37148 ft 370 kts 188°
2026-05-07 15:07 -28.79191 -70.56337 37137 ft 369 kts 188°
2026-05-07 15:08 -28.84296 -70.56822 37128 ft 368 kts 188°
2026-05-07 15:08 -28.89415 -70.57307 37141 ft 371 kts 188°
2026-05-07 15:09 -28.94552 -70.57792 37143 ft 370 kts 188°
2026-05-07 15:09 -28.99683 -70.58289 37170 ft 370 kts 188°
2026-05-07 15:10 -29.04806 -70.58779 37166 ft 369 kts 188°
2026-05-07 15:10 -29.09929 -70.59276 37180 ft 369 kts 188°
2026-05-07 15:11 -29.15050 -70.59770 37178 ft 370 kts 188°
2026-05-07 15:11 -29.20178 -70.60269 37189 ft 369 kts 188°
2026-05-07 15:12 -29.25291 -70.60763 37216 ft 369 kts 188°
2026-05-07 15:12 -29.30401 -70.61256 37198 ft 368 kts 188°
2026-05-07 15:13 -29.35463 -70.61750 37185 ft 367 kts 188°
2026-05-07 15:13 -29.40544 -70.62246 37187 ft 366 kts 188°
2026-05-07 15:14 -29.45622 -70.62746 37179 ft 366 kts 188°
2026-05-07 15:14 -29.50691 -70.63237 37179 ft 365 kts 188°
2026-05-07 15:15 -29.55746 -70.63719 37184 ft 364 kts 187°
2026-05-07 15:15 -29.60806 -70.64221 37180 ft 365 kts 188°
2026-05-07 15:16 -29.65875 -70.64728 37176 ft 365 kts 187°
2026-05-07 15:16 -29.70940 -70.65217 37178 ft 365 kts 187°
2026-05-07 15:17 -29.75974 -70.65709 37168 ft 366 kts 187°
2026-05-07 15:17 -29.81035 -70.66202 37162 ft 365 kts 187°
2026-05-07 15:18 -29.86100 -70.66707 37164 ft 366 kts 187°
2026-05-07 15:18 -29.91179 -70.67209 37169 ft 367 kts 187°
2026-05-07 15:19 -29.96269 -70.67710 37169 ft 367 kts 187°
2026-05-07 15:19 -30.01367 -70.68212 37174 ft 367 kts 187°
2026-05-07 15:20 -30.06454 -70.68712 37196 ft 365 kts 188°
2026-05-07 15:20 -30.11539 -70.69207 37195 ft 368 kts 187°
2026-05-07 15:21 -30.16635 -70.69708 37189 ft 367 kts 187°
2026-05-07 15:21 -30.21665 -70.70208 37188 ft 364 kts 187°
2026-05-07 15:22 -30.26730 -70.70709 37194 ft 366 kts 187°
2026-05-07 15:22 -30.31804 -70.71215 37199 ft 365 kts 187°
2026-05-07 15:23 -30.36871 -70.71711 37215 ft 365 kts 187°
2026-05-07 15:23 -30.41942 -70.72211 37214 ft 365 kts 187°
2026-05-07 15:24 -30.47010 -70.72718 37207 ft 365 kts 187°
2026-05-07 15:24 -30.52062 -70.73229 37201 ft 364 kts 187°
2026-05-07 15:25 -30.57124 -70.73742 37197 ft 366 kts 187°
2026-05-07 15:25 -30.62189 -70.74242 37221 ft 365 kts 187°
2026-05-07 15:26 -30.67246 -70.74726 37206 ft 365 kts 187°
2026-05-07 15:26 -30.72310 -70.75218 37201 ft 364 kts 187°
2026-05-07 15:27 -30.77357 -70.75711 37197 ft 363 kts 187°
2026-05-07 15:27 -30.82392 -70.76194 37199 ft 364 kts 187°
2026-05-07 15:28 -30.87439 -70.76686 37202 ft 364 kts 187°
2026-05-07 15:28 -30.92466 -70.77170 37228 ft 365 kts 187°
2026-05-07 15:29 -30.97517 -70.77656 37219 ft 364 kts 187°
2026-05-07 15:29 -31.02554 -70.78144 37211 ft 363 kts 187°
2026-05-07 15:30 -31.07598 -70.78646 37219 ft 364 kts 187°
2026-05-07 15:30 -31.12648 -70.79143 37223 ft 364 kts 187°
2026-05-07 15:31 -31.17699 -70.79628 37259 ft 364 kts 187°
2026-05-07 15:31 -31.22740 -70.80116 37245 ft 363 kts 187°
2026-05-07 15:32 -31.27776 -70.80615 37246 ft 363 kts 187°
2026-05-07 15:32 -31.32801 -70.81114 37244 ft 362 kts 187°
2026-05-07 15:33 -31.37828 -70.81609 37245 ft 362 kts 187°
2026-05-07 15:33 -31.42811 -70.82101 37265 ft 362 kts 187°
2026-05-07 15:34 -31.47790 -70.82594 37233 ft 358 kts 187°
2026-05-07 15:34 -31.52768 -70.83078 37232 ft 359 kts 187°
2026-05-07 15:35 -31.57746 -70.83576 37235 ft 359 kts 186°
2026-05-07 15:35 -31.62747 -70.84076 37227 ft 359 kts 187°
2026-05-07 15:36 -31.67725 -70.84569 37216 ft 358 kts 187°
2026-05-07 15:36 -31.72699 -70.85058 37233 ft 359 kts 187°
2026-05-07 15:37 -31.77697 -70.85208 37219 ft 361 kts 182°
2026-05-07 15:37 -31.82722 -70.85029 37221 ft 362 kts 182°
2026-05-07 15:38 -31.87755 -70.84850 37225 ft 362 kts 182°
2026-05-07 15:38 -31.92793 -70.84669 36661 ft 362 kts 182°
2026-05-07 15:39 -31.95317 -70.84580 35631 ft 363 kts 182°
2026-05-07 15:39 -31.97832 -70.84493 34648 ft 361 kts 182°
2026-05-07 15:39 -32.00334 -70.84406 33610 ft 358 kts 182°
2026-05-07 15:39 -32.02821 -70.84317 32471 ft 357 kts 182°
2026-05-07 15:40 -32.05264 -70.84228 31416 ft 354 kts 182°
2026-05-07 15:40 -32.07708 -70.84139 30484 ft 349 kts 182°
2026-05-07 15:40 -32.10127 -70.84054 29438 ft 345 kts 182°
2026-05-07 15:40 -32.12513 -70.83970 28421 ft 341 kts 182°
2026-05-07 15:41 -32.14873 -70.83885 27433 ft 337 kts 182°
2026-05-07 15:41 -32.17202 -70.83799 26477 ft 334 kts 182°
2026-05-07 15:41 -32.19514 -70.83715 25571 ft 331 kts 183°
2026-05-07 15:41 -32.21803 -70.83635 24721 ft 327 kts 183°
2026-05-07 15:42 -32.24061 -70.83558 23770 ft 322 kts 183°
2026-05-07 15:42 -32.26281 -70.83478 23012 ft 313 kts 183°
2026-05-07 15:42 -32.28402 -70.83396 22550 ft 297 kts 183°
2026-05-07 15:42 -32.30416 -70.83319 22129 ft 286 kts 183°
2026-05-07 15:43 -32.32415 -70.83251 21696 ft 288 kts 182°
2026-05-07 15:43 -32.34411 -70.83181 21277 ft 287 kts 182°
2026-05-07 15:43 -32.36403 -70.83110 20854 ft 286 kts 182°
2026-05-07 15:43 -32.38382 -70.83039 20418 ft 284 kts 182°
2026-05-07 15:44 -32.40349 -70.82967 19999 ft 282 kts 181°
2026-05-07 15:44 -32.42305 -70.82898 19577 ft 281 kts 181°
2026-05-07 15:44 -32.44263 -70.82829 19140 ft 282 kts 181°
2026-05-07 15:44 -32.46220 -70.82763 18700 ft 281 kts 181°
2026-05-07 15:45 -32.48170 -70.82696 18189 ft 280 kts 181°
2026-05-07 15:45 -32.50114 -70.82630 17733 ft 278 kts 180°
2026-05-07 15:45 -32.52041 -70.82556 17296 ft 276 kts 180°
2026-05-07 15:45 -32.53961 -70.82484 16861 ft 277 kts 180°
2026-05-07 15:46 -32.57834 -70.82351 15947 ft 280 kts 180°
2026-05-07 15:46 -32.59788 -70.82280 15593 ft 279 kts 180°
2026-05-07 15:46 -32.61686 -70.82206 15475 ft 268 kts 180°
2026-05-07 15:47 -32.63516 -70.82137 15351 ft 259 kts 180°
2026-05-07 15:47 -32.65293 -70.82069 15197 ft 253 kts 180°
2026-05-07 15:47 -32.67036 -70.82005 15138 ft 250 kts 180°
2026-05-07 15:47 -32.68771 -70.81944 15085 ft 250 kts 180°
2026-05-07 15:48 -32.70507 -70.81882 14991 ft 250 kts 179°
2026-05-07 15:48 -32.72221 -70.81821 14901 ft 249 kts 180°
2026-05-07 15:48 -32.73959 -70.81760 14791 ft 250 kts 179°
2026-05-07 15:48 -32.75705 -70.81695 14650 ft 252 kts 179°
2026-05-07 15:49 -32.77494 -70.81629 14127 ft 262 kts 179°
2026-05-07 15:49 -32.79306 -70.81565 13833 ft 260 kts 179°
2026-05-07 15:49 -32.81113 -70.81502 13501 ft 260 kts 179°
2026-05-07 15:49 -32.82917 -70.81438 13149 ft 259 kts 179°
2026-05-07 15:50 -32.84716 -70.81374 12603 ft 258 kts 179°
2026-05-07 15:50 -32.85930 -70.81330 12209 ft 258 kts 179°
2026-05-07 15:50 -32.87725 -70.81264 11622 ft 258 kts 178°
2026-05-07 15:50 -32.89525 -70.81197 11043 ft 259 kts 178°
2026-05-07 15:51 -32.91305 -70.81133 10464 ft 259 kts 179°
2026-05-07 15:51 -32.93099 -70.81287 9903 ft 258 kts 187°
2026-05-07 15:51 -32.94873 -70.81562 9415 ft 256 kts 187°
2026-05-07 15:51 -32.96643 -70.81831 8969 ft 255 kts 186°
2026-05-07 15:52 -32.98398 -70.82093 8529 ft 255 kts 186°
2026-05-07 15:52 -33.00169 -70.82350 8071 ft 257 kts 183°
2026-05-07 15:52 -33.01960 -70.82317 7631 ft 259 kts 176°
2026-05-07 15:52 -33.03764 -70.82215 7259 ft 259 kts 176°
2026-05-07 15:53 -33.05578 -70.82086 6846 ft 261 kts 176°
2026-05-07 15:53 -33.07356 -70.81967 6727 ft 251 kts 176°
2026-05-07 15:53 -33.09072 -70.81873 6498 ft 245 kts 177°
2026-05-07 15:53 -33.10769 -70.81784 6169 ft 244 kts 176°
2026-05-07 15:54 -33.12503 -70.81691 5611 ft 254 kts 176°
2026-05-07 15:54 -33.14253 -70.81598 5347 ft 246 kts 177°
2026-05-07 15:54 -33.15909 -70.81511 5196 ft 229 kts 177°
2026-05-07 15:54 -33.17443 -70.81428 5103 ft 213 kts 177°
2026-05-07 15:55 -33.18886 -70.81352 5038 ft 202 kts 177°
2026-05-07 15:55 -33.20278 -70.81277 4885 ft 199 kts 177°
2026-05-07 15:55 -33.21664 -70.81202 4634 ft 200 kts 177°
2026-05-07 15:55 -33.23030 -70.81130 4410 ft 194 kts 178°
2026-05-07 15:56 -33.24365 -70.81059 4149 ft 190 kts 177°
2026-05-07 15:56 -33.25647 -70.80990 4153 ft 176 kts 177°
2026-05-07 15:56 -33.26876 -70.80922 4079 ft 176 kts 177°
2026-05-07 15:56 -33.28093 -70.80858 3634 ft 174 kts 176°
2026-05-07 15:57 -33.29243 -70.80790 3426 ft 155 kts 176°
2026-05-07 15:57 -33.30288 -70.80736 3164 ft 147 kts 178°
2026-05-07 15:57 -33.31286 -70.80694 2859 ft 142 kts 177°
2026-05-07 15:57 -33.32252 -70.80645 2638 ft 140 kts 178°
2026-05-07 15:58 -33.33225 -70.80585 2395 ft 136 kts 175°
2026-05-07 15:58 -33.34158 -70.80539 2209 ft 136 kts 178°
2026-05-07 15:58 -33.35109 -70.80494 2011 ft 138 kts 176°
2026-05-07 15:58 -33.36064 -70.80441 1820 ft 139 kts 176°
2026-05-07 15:59 -33.37029 -70.80388 1647 ft 139 kts 175°
2026-05-07 15:59 -33.37954 -70.80332 1573 ft 119 kts 178°
2026-05-07 15:59 -33.38602 -70.80298 1574 ft 68 kts 177°
2026-05-07 15:59 -33.38984 -70.80278 1574 ft 49 kts 177°
2026-05-07 16:00 -33.39254 -70.80246 1572 ft 30 kts 161°
2026-05-07 16:00 -33.39412 -70.80138 1568 ft 25 kts 149°
2026-05-07 16:00 -33.39521 -70.80038 1566 ft 10 kts 128°
2026-05-07 16:00 -33.39532 -70.79953 1565 ft 8 kts 105°
2026-05-07 16:01 -33.39592 -70.79936 1565 ft 9 kts 179°
2026-05-07 16:01 -33.39657 -70.79934 1565 ft 10 kts 178°
2026-05-07 16:01 -33.39727 -70.79931 1565 ft 14 kts 178°
2026-05-07 16:01 -33.39819 -70.79925 1565 ft 7 kts 176°
2026-05-07 16:02 -33.39843 -70.79880 1565 ft 11 kts 88°
2026-05-07 16:02 -33.39839 -70.79767 1565 ft 13 kts 88°
2026-05-07 16:02 -33.39789 -70.79733 1565 ft 11 kts 356°
2026-05-07 16:02 -33.39740 -70.79736 1565 ft 5 kts 358°
2026-05-07 16:03 -33.39730 -70.79736 1565 ft 0 kts 359°